| time (UTC) | temp F | wind direction | speed MPH | gust MPH | rain 1hr in | rain 24hr in | rain mn in | humidity % | barometer mb |
| 20260905055132 | 54 | 221 | 6.0 | 14.0 | 0.00 | 0.00 | 0.00 | 84 | 1016.6 |
| 20260905054630 | 54 | 233 | 8.0 | 14.0 | 0.00 | 0.00 | 0.00 | 84 | 1016.3 |
| 20260905054133 | 54 | 207 | 5.0 | 18.0 | 0.00 | 0.00 | 0.00 | 84 | 1016.2 |
| 20260905053604 | 54 | 210 | 12.0 | 18.0 | 0.00 | 0.00 | 0.00 | 84 | 1016.1 |
| 20260905053106 | 54 | 247 | 6.0 | 13.0 | 0.00 | 0.00 | 0.00 | 84 | 1016.2 |
| 20260905052608 | 54 | 221 | 8.0 | 14.0 | 0.00 | 0.00 | 0.00 | 83 | 1016.1 |
| 20260905052104 | 54 | 257 | 8.0 | 16.0 | 0.00 | 0.00 | 0.00 | 83 | 1016.0 |
| 20260905051606 | 54 | 244 | 9.0 | 17.0 | 0.00 | 0.00 | 0.00 | 84 | 1016.0 |
| 20260905051105 | 54 | 219 | 7.0 | 18.0 | 0.00 | 0.00 | 0.00 | 84 | 1015.9 |
| 20260905050605 | 54 | 190 | 11.0 | 18.0 | 0.00 | 0.00 | 0.00 | 84 | 1015.8 |
| 20260905050104 | 54 | 202 | 9.0 | 17.0 | 0.00 | 0.00 | 0.00 | 85 | 1015.7 |
| 20260905045557 | 54 | 197 | 9.0 | 17.0 | 0.00 | 0.00 | 0.00 | 85 | 1015.7 |
| 20260905045047 | 54 | 224 | 6.0 | 17.0 | 0.00 | 0.00 | 0.00 | 85 | 1015.7 |
| 20260905044047 | 54 | 224 | 6.0 | 15.0 | 0.00 | 0.00 | 0.00 | 85 | 1015.5 |
| 20260905043543 | 55 | 237 | 8.0 | 15.0 | 0.00 | 0.00 | 0.00 | 84 | 1015.5 |
| 20260905043033 | 55 | 235 | 6.0 | 14.0 | 0.00 | 0.00 | 0.00 | 84 | 1015.5 |
| 20260905042019 | 55 | 235 | 8.0 | 14.0 | 0.00 | 0.00 | 0.00 | 83 | 1015.5 |
| 20260905041509 | 55 | 254 | 10.0 | 17.0 | 0.00 | 0.00 | 0.00 | 83 | 1015.3 |
| 20260905041008 | 55 | 264 | 9.0 | 17.0 | 0.00 | 0.00 | 0.00 | 83 | 1015.2 |
| 20260905040506 | 55 | 261 | 8.0 | 15.0 | 0.00 | 0.00 | 0.00 | 83 | 1015.2 |
| 20260905035503 | 55 | 279 | 8.0 | 15.0 | 0.00 | 0.00 | 0.00 | 83 | 1015.2 |
| 20260905035004 | 55 | 244 | 6.0 | 15.0 | 0.00 | 0.00 | 0.00 | 83 | 1015.2 |
| 20260905034502 | 55 | 251 | 7.0 | 13.0 | 0.00 | 0.00 | 0.00 | 83 | 1015.2 |
| 20260905034004 | 55 | 224 | 5.0 | 11.0 | 0.00 | 0.00 | 0.00 | 83 | 1015.2 |
| 20260905033452 | 55 | 251 | 7.0 | 12.0 | 0.00 | 0.00 | 0.00 | 84 | 1015.1 |
| 20260905032953 | 55 | 224 | 5.0 | 12.0 | 0.00 | 0.00 | 0.00 | 84 | 1015.1 |
| 20260905032446 | 55 | 237 | 7.0 | 13.0 | 0.00 | 0.00 | 0.00 | 83 | 1014.9 |
| 20260905031946 | 55 | 210 | 4.0 | 13.0 | 0.00 | 0.00 | 0.00 | 83 | 1014.9 |
| 20260905025947 | 56 | 224 | 6.0 | 15.0 | 0.00 | 0.00 | 0.00 | 82 | 1014.7 |
| 20260905025446 | 56 | 292 | 6.0 | 15.0 | 0.00 | 0.00 | 0.00 | 82 | 1014.6 |
| 20260905024947 | 56 | 228 | 8.0 | 18.0 | 0.00 | 0.00 | 0.00 | 82 | 1014.6 |
| 20260905023945 | 56 | 269 | 6.0 | 19.0 | 0.00 | 0.00 | 0.00 | 82 | 1014.3 |
| 20260905022945 | 56 | 250 | 9.0 | 18.0 | 0.00 | 0.00 | 0.00 | 83 | 1014.2 |
| 20260905022446 | 56 | 244 | 9.0 | 18.0 | 0.00 | 0.00 | 0.00 | 82 | 1014.2 |
| 20260905021947 | 55 | 282 | 10.0 | 16.0 | 0.00 | 0.00 | 0.00 | 83 | 1014.3 |
| 20260905021450 | 55 | 276 | 10.0 | 16.0 | 0.00 | 0.00 | 0.00 | 83 | 1014.2 |
| 20260905020448 | 55 | 234 | 8.0 | 17.0 | 0.00 | 0.00 | 0.00 | 84 | 1014.2 |
| 20260905015947 | 55 | 244 | 6.0 | 15.0 | 0.00 | 0.00 | 0.00 | 84 | 1014.1 |
| 20260905015448 | 55 | 290 | 5.0 | 15.0 | 0.00 | 0.00 | 0.00 | 84 | 1014.0 |
| 20260905014446 | 55 | 227 | 4.0 | 12.0 | 0.00 | 0.00 | 0.00 | 84 | 1013.9 |
| 20260905013944 | 55 | 244 | 6.0 | 14.0 | 0.00 | 0.00 | 0.00 | 84 | 1013.9 |
| 20260905013447 | 55 | 227 | 6.0 | 14.0 | 0.00 | 0.00 | 0.00 | 84 | 1013.9 |
| 20260905012946 | 55 | 265 | 5.0 | 13.0 | 0.00 | 0.00 | 0.00 | 84 | 1013.8 |
| 20260905012447 | 55 | 275 | 6.0 | 13.0 | 0.00 | 0.00 | 0.00 | 84 | 1013.8 |
| 20260905011946 | 55 | 240 | 7.0 | 15.0 | 0.00 | 0.01 | 0.00 | 86 | 1013.8 |
| 20260905010947 | 55 | 224 | 12.0 | 21.0 | 0.00 | 0.01 | 0.00 | 86 | 1013.7 |
| 20260905010448 | 55 | 220 | 6.0 | 13.0 | 0.00 | 0.01 | 0.00 | 86 | 1013.6 |
| 20260905005945 | 56 | 240 | 7.0 | 12.0 | 0.00 | 0.01 | 0.00 | 86 | 1013.6 |
| 20260905005448 | 56 | 244 | 7.0 | 12.0 | 0.00 | 0.01 | 0.00 | 86 | 1013.6 |
| 20260905004447 | 56 | 227 | 7.0 | 14.0 | 0.00 | 0.02 | 0.00 | 86 | 1013.5 |
| 20260905003947 | 56 | 238 | 4.0 | 13.0 | 0.00 | 0.02 | 0.00 | 86 | 1013.5 |
| 20260905003448 | 56 | 289 | 6.0 | 13.0 | 0.00 | 0.02 | 0.00 | 86 | 1013.5 |
| 20260905002947 | 56 | 214 | 4.0 | 17.0 | 0.00 | 0.02 | 0.00 | 86 | 1013.4 |
| 20260905002447 | 56 | 212 | 10.0 | 17.0 | 0.00 | 0.02 | 0.00 | 85 | 1013.2 |
| 20260905001946 | 56 | 271 | 4.0 | 15.0 | 0.00 | 0.02 | 0.00 | 85 | 1013.0 |
| 20260905001447 | 56 | 234 | 8.0 | 15.0 | 0.00 | 0.03 | 0.00 | 86 | 1013.0 |
| 20260905000946 | 56 | 259 | 9.0 | 15.0 | 0.00 | 0.03 | 0.00 | 86 | 1013.0 |
| 20260905000449 | 56 | 210 | 7.0 | 15.0 | 0.00 | 0.04 | 0.00 | 85 | 1013.0 |
| 20260904235947 | 56 | 204 | 9.0 | 15.0 | 0.00 | 0.05 | 0.00 | 85 | 1012.9 |
| 20260904235445 | 56 | 251 | 8.0 | 16.0 | 0.00 | 0.05 | 0.00 | 85 | 1012.8 |
| 20260904234947 | 56 | 230 | 8.0 | 16.0 | 0.00 | 0.06 | 0.00 | 85 | 1012.7 |
| 20260904233946 | 57 | 207 | 8.0 | 14.0 | 0.00 | 0.06 | 0.00 | 85 | 1012.6 |
| 20260904233447 | 57 | 190 | 6.0 | 13.0 | 0.00 | 0.06 | 0.00 | 85 | 1012.6 |
| 20260904232948 | 57 | 237 | 6.0 | 15.0 | 0.00 | 0.06 | 0.00 | 85 | 1012.5 |
| 20260904232448 | 57 | 209 | 6.0 | 16.0 | 0.00 | 0.06 | 0.00 | 85 | 1012.5 |
| 20260904231947 | 57 | 227 | 9.0 | 16.0 | 0.00 | 0.07 | 0.00 | 85 | 1012.5 |
| 20260904231449 | 57 | 212 | 9.0 | 15.0 | 0.00 | 0.07 | 0.00 | 84 | 1012.6 |
| 20260904230500 | 57 | 244 | 6.0 | 12.0 | 0.00 | 0.07 | 0.00 | 84 | 1012.6 |
| 20260904225447 | 57 | 219 | 3.0 | 13.0 | 0.00 | 0.08 | 0.08 | 84 | 1012.7 |
| 20260904224946 | 57 | 214 | 5.0 | 12.0 | 0.00 | 0.08 | 0.08 | 84 | 1012.5 |
| 20260904223946 | 58 | 189 | 6.0 | 12.0 | 0.00 | 0.09 | 0.08 | 84 | 1012.5 |
| 20260904223447 | 58 | 254 | 6.0 | 12.0 | 0.00 | 0.09 | 0.08 | 84 | 1012.4 |
| 20260904222947 | 58 | 217 | 6.0 | 14.0 | 0.00 | 0.09 | 0.08 | 85 | 1012.5 |
| 20260904222447 | 58 | 214 | 9.0 | 14.0 | 0.00 | 0.09 | 0.08 | 85 | 1012.5 |
| 20260904221946 | 58 | 250 | 7.0 | 12.0 | 0.00 | 0.09 | 0.08 | 85 | 1012.6 |
| 20260904221447 | 58 | 197 | 6.0 | 11.0 | 0.00 | 0.09 | 0.08 | 85 | 1012.5 |
| 20260904220947 | 58 | 254 | 5.0 | 12.0 | 0.00 | 0.09 | 0.08 | 85 | 1012.6 |
| 20260904215947 | 58 | 241 | 2.0 | 8.0 | 0.00 | 0.09 | 0.08 | 84 | 1012.4 |
| 20260904215445 | 58 | 289 | 5.0 | 9.0 | 0.00 | 0.09 | 0.08 | 84 | 1012.3 |
| 20260904214446 | 58 | 258 | 4.0 | 8.0 | 0.00 | 0.09 | 0.08 | 83 | 1012.2 |
| 20260904213947 | 58 | 221 | 2.0 | 12.0 | 0.00 | 0.09 | 0.08 | 83 | 1012.1 |
| 20260904213446 | 59 | 217 | 6.0 | 12.0 | 0.00 | 0.09 | 0.08 | 83 | 1012.2 |
| 20260904212946 | 59 | 237 | 4.0 | 15.0 | 0.00 | 0.09 | 0.08 | 83 | 1012.2 |
| 20260904212445 | 59 | 210 | 9.0 | 15.0 | 0.00 | 0.09 | 0.08 | 83 | 1012.0 |
| 20260904211937 | 59 | 237 | 7.0 | 18.0 | 0.00 | 0.09 | 0.08 | 83 | 1011.9 |
| 20260904210432 | 59 | 204 | 8.0 | 17.0 | 0.00 | 0.10 | 0.08 | 82 | 1011.8 |
| 20260904205930 | 59 | 254 | 6.0 | 17.0 | 0.00 | 0.10 | 0.08 | 82 | 1011.6 |
| 20260904205433 | 59 | 195 | 5.0 | 16.0 | 0.00 | 0.10 | 0.08 | 82 | 1011.6 |
| 20260904204933 | 59 | 261 | 9.0 | 16.0 | 0.00 | 0.10 | 0.08 | 82 | 1011.5 |
| 20260904203432 | 60 | 189 | 8.0 | 18.0 | 0.00 | 0.10 | 0.08 | 82 | 1011.7 |
| 20260904202931 | 60 | 243 | 10.0 | 17.0 | 0.00 | 0.10 | 0.08 | 82 | 1011.7 |
| 20260904202424 | 60 | 238 | 7.0 | 18.0 | 0.00 | 0.10 | 0.08 | 82 | 1011.8 |
| 20260904201923 | 60 | 258 | 11.0 | 18.0 | 0.00 | 0.11 | 0.08 | 81 | 1011.7 |
| 20260904201405 | 60 | 237 | 6.0 | 14.0 | 0.00 | 0.11 | 0.08 | 80 | 1011.7 |
| 20260904200904 | 60 | 203 | 7.0 | 17.0 | 0.00 | 0.11 | 0.08 | 80 | 1011.6 |
| 20260904195346 | 60 | 221 | 4.0 | 17.0 | 0.00 | 0.12 | 0.08 | 79 | 1011.5 |
| 20260904193847 | 60 | 238 | 6.0 | 14.0 | 0.00 | 0.14 | 0.08 | 78 | 1011.6 |
| 20260904193347 | 60 | 188 | 5.0 | 15.0 | 0.00 | 0.16 | 0.08 | 77 | 1011.5 |
| 20260904192850 | 61 | 234 | 7.0 | 15.0 | 0.00 | 0.17 | 0.08 | 77 | 1011.6 |
| 20260904191846 | 61 | 271 | 5.0 | 17.0 | 0.00 | 0.19 | 0.08 | 76 | 1011.3 |
| 20260904190847 | 62 | 279 | 7.0 | 15.0 | 0.00 | 0.20 | 0.08 | 76 | 1011.0 |
| 20260904190346 | 62 | 247 | 7.0 | 19.0 | 0.00 | 0.20 | 0.08 | 75 | 1011.0 |
| 20260904185333 | 62 | 248 | 11.0 | 22.0 | 0.00 | 0.20 | 0.08 | 75 | 1011.0 |
| 20260904184805 | 62 | 240 | 7.0 | 23.0 | 0.00 | 0.20 | 0.08 | 75 | 1010.9 |
| 20260904184307 | 62 | 254 | 16.0 | 23.0 | 0.00 | 0.20 | 0.08 | 75 | 1010.8 |
| 20260904183804 | 62 | 265 | 8.0 | 18.0 | 0.00 | 0.20 | 0.08 | 75 | 1010.7 |
| 20260904183302 | 62 | 240 | 8.0 | 18.0 | 0.00 | 0.20 | 0.08 | 75 | 1010.5 |
| 20260904182804 | 62 | 186 | 6.0 | 15.0 | 0.00 | 0.20 | 0.08 | 74 | 1010.6 |
| 20260904182301 | 62 | 262 | 9.0 | 17.0 | 0.00 | 0.20 | 0.08 | 74 | 1010.4 |
| 20260904181746 | 63 | 248 | 8.0 | 16.0 | 0.00 | 0.20 | 0.08 | 74 | 1010.4 |
| 20260904181243 | 63 | 274 | 7.0 | 16.0 | 0.00 | 0.20 | 0.08 | 73 | 1010.4 |
| 20260904180737 | 63 | 224 | 7.0 | 15.0 | 0.00 | 0.20 | 0.08 | 71 | 1010.4 |
| 20260904180234 | 63 | 219 | 10.0 | 16.0 | 0.00 | 0.20 | 0.08 | 71 | 1010.3 |
| 20260904175735 | 63 | 293 | 11.0 | 16.0 | 0.00 | 0.20 | 0.08 | 67 | 1010.2 |
| 20260904175210 | 64 | 252 | 8.0 | 18.0 | 0.00 | 0.20 | 0.08 | 67 | 1010.0 |
| 20260904174205 | 64 | 248 | 9.0 | 16.0 | 0.00 | 0.20 | 0.08 | 65 | 1010.0 |
| 20260904173144 | 64 | 257 | 9.0 | 28.0 | 0.00 | 0.20 | 0.08 | 63 | 1009.9 |
| 20260904172645 | 64 | 283 | 13.0 | 28.0 | 0.00 | 0.20 | 0.08 | 63 | 1010.1 |
| 20260904171645 | 65 | 230 | 8.0 | 24.0 | 0.00 | 0.20 | 0.08 | 62 | 1009.7 |
| 20260904171145 | 65 | 307 | 11.0 | 16.0 | 0.00 | 0.20 | 0.08 | 62 | 1009.8 |
| 20260904170646 | 65 | 250 | 10.0 | 18.0 | 0.00 | 0.20 | 0.08 | 61 | 1009.7 |
| 20260904170146 | 66 | 276 | 10.0 | 18.0 | 0.00 | 0.20 | 0.08 | 60 | 1009.6 |
| 20260904165644 | 66 | 269 | 9.0 | 19.0 | 0.00 | 0.20 | 0.08 | 59 | 1009.6 |
| 20260904165145 | 66 | 231 | 11.0 | 20.0 | 0.00 | 0.20 | 0.08 | 60 | 1009.6 |
| 20260904164643 | 66 | 258 | 9.0 | 28.0 | 0.00 | 0.20 | 0.08 | 60 | 1009.6 |
| 20260904164148 | 66 | 281 | 9.0 | 28.0 | 0.00 | 0.20 | 0.08 | 60 | 1009.6 |
| 20260904163646 | 66 | 197 | 7.0 | 18.0 | 0.00 | 0.20 | 0.08 | 63 | 1009.6 |
| 20260904163146 | 66 | 240 | 9.0 | 18.0 | 0.00 | 0.20 | 0.08 | 63 | 1009.5 |
| 20260904162647 | 65 | 224 | 8.0 | 17.0 | 0.00 | 0.20 | 0.08 | 63 | 1009.5 |
| 20260904161646 | 66 | 247 | 9.0 | 19.0 | 0.00 | 0.20 | 0.08 | 59 | 1009.2 |
| 20260904161147 | 67 | 248 | 10.0 | 24.0 | 0.00 | 0.20 | 0.08 | 57 | 1009.1 |
| 20260904160147 | 67 | 224 | 9.0 | 16.0 | 0.00 | 0.20 | 0.08 | 58 | 1009.2 |
| 20260904155647 | 67 | 289 | 10.0 | 24.0 | 0.00 | 0.20 | 0.08 | 56 | 1009.2 |
| 20260904155145 | 67 | 221 | 14.0 | 24.0 | 0.00 | 0.20 | 0.08 | 56 | 1009.2 |
| 20260904154645 | 67 | 243 | 11.0 | 24.0 | 0.00 | 0.20 | 0.08 | 57 | 1008.9 |
| 20260904153647 | 66 | 241 | 11.0 | 28.0 | 0.00 | 0.20 | 0.08 | 59 | 1008.7 |
| 20260904152646 | 66 | 320 | 12.0 | 23.0 | 0.00 | 0.20 | 0.08 | 60 | 1008.6 |
| 20260904152147 | 66 | 266 | 13.0 | 23.0 | 0.00 | 0.20 | 0.08 | 62 | 1008.4 |
| 20260904151645 | 65 | 286 | 10.0 | 22.0 | 0.00 | 0.20 | 0.08 | 63 | 1008.5 |
| 20260904151146 | 65 | 285 | 15.0 | 22.0 | 0.00 | 0.20 | 0.08 | 63 | 1008.4 |
| 20260904150646 | 65 | 234 | 14.0 | 22.0 | 0.00 | 0.20 | 0.08 | 63 | 1008.4 |
| 20260904150146 | 65 | 265 | 17.0 | 21.0 | 0.00 | 0.20 | 0.08 | 65 | 1008.4 |
| 20260904145645 | 65 | 252 | 7.0 | 20.0 | 0.00 | 0.20 | 0.08 | 66 | 1008.3 |
| 20260904145146 | 65 | 259 | 11.0 | 20.0 | 0.00 | 0.20 | 0.08 | 66 | 1008.4 |
| 20260904144646 | 65 | 241 | 11.0 | 19.0 | 0.00 | 0.20 | 0.08 | 66 | 1008.2 |
| 20260904144150 | 65 | 271 | 8.0 | 21.0 | 0.00 | 0.20 | 0.08 | 67 | 1008.1 |
| 20260904143651 | 65 | 252 | 14.0 | 21.0 | 0.00 | 0.20 | 0.08 | 65 | 1008.1 |
| 20260904143146 | 65 | 293 | 10.0 | 20.0 | 0.00 | 0.20 | 0.08 | 65 | 1007.9 |
| 20260904142646 | 66 | 186 | 16.0 | 20.0 | 0.00 | 0.20 | 0.08 | 65 | 1007.9 |
| 20260904141646 | 66 | 269 | 9.0 | 21.0 | 0.00 | 0.20 | 0.08 | 65 | 1007.8 |
| 20260904141146 | 65 | 262 | 9.0 | 19.0 | 0.00 | 0.20 | 0.08 | 66 | 1007.8 |
| 20260904140646 | 65 | 271 | 10.0 | 19.0 | 0.00 | 0.20 | 0.08 | 66 | 1007.8 |
| 20260904140147 | 65 | 274 | 11.0 | 19.0 | 0.00 | 0.20 | 0.08 | 66 | 1007.6 |
| 20260904135645 | 65 | 250 | 8.0 | 19.0 | 0.00 | 0.20 | 0.08 | 69 | 1007.6 |
| 20260904135147 | 65 | 259 | 10.0 | 20.0 | 0.00 | 0.20 | 0.08 | 68 | 1007.5 |
| 20260904134646 | 65 | 251 | 12.0 | 21.0 | 0.00 | 0.20 | 0.08 | 68 | 1007.6 |
| 20260904134155 | 65 | 255 | 10.0 | 21.0 | 0.00 | 0.20 | 0.08 | 69 | 1007.2 |
| 20260904133646 | 65 | 268 | 8.0 | 19.0 | 0.00 | 0.20 | 0.08 | 68 | 1007.1 |
| 20260904133146 | 66 | 235 | 11.0 | 26.0 | 0.00 | 0.20 | 0.08 | 68 | 1007.1 |
| 20260904132646 | 65 | 244 | 7.0 | 26.0 | 0.00 | 0.20 | 0.08 | 67 | 1007.1 |
| 20260904132147 | 65 | 265 | 11.0 | 22.0 | 0.00 | 0.20 | 0.08 | 69 | 1007.1 |
| 20260904131646 | 64 | 243 | 13.0 | 24.0 | 0.00 | 0.20 | 0.08 | 70 | 1006.9 |
| 20260904131147 | 64 | 248 | 10.0 | 26.0 | 0.00 | 0.20 | 0.08 | 69 | 1007.0 |
| 20260904130647 | 63 | 269 | 14.0 | 26.0 | 0.00 | 0.20 | 0.08 | 73 | 1007.0 |
| 20260904130147 | 63 | 275 | 6.0 | 18.0 | 0.00 | 0.20 | 0.08 | 73 | 1006.9 |
| 20260904125647 | 63 | 245 | 11.0 | 18.0 | 0.00 | 0.20 | 0.08 | 73 | 1006.9 |
| 20260904125146 | 63 | 227 | 8.0 | 22.0 | 0.00 | 0.20 | 0.08 | 72 | 1006.8 |
| 20260904124646 | 63 | 285 | 8.0 | 22.0 | 0.00 | 0.20 | 0.08 | 71 | 1006.7 |
| 20260904124146 | 63 | 238 | 13.0 | 24.0 | 0.00 | 0.20 | 0.08 | 72 | 1006.8 |
| 20260904123644 | 63 | 227 | 14.0 | 24.0 | 0.00 | 0.20 | 0.08 | 72 | 1006.9 |
| 20260904123146 | 64 | 285 | 11.0 | 23.0 | 0.00 | 0.20 | 0.08 | 72 | 1006.7 |
| 20260904122646 | 64 | 221 | 11.0 | 24.0 | 0.00 | 0.20 | 0.08 | 72 | 1006.7 |
| 20260904122146 | 64 | 259 | 11.0 | 24.0 | 0.00 | 0.20 | 0.08 | 72 | 1006.5 |
| 20260904121646 | 65 | 243 | 9.0 | 24.0 | 0.00 | 0.20 | 0.08 | 72 | 1006.5 |
| 20260904121146 | 65 | 166 | 13.0 | 24.0 | 0.00 | 0.20 | 0.08 | 71 | 1006.6 |
| 20260904120145 | 65 | 259 | 16.0 | 26.0 | 0.00 | 0.20 | 0.08 | 70 | 1006.2 |
| 20260904115646 | 64 | 281 | 16.0 | 26.0 | 0.00 | 0.20 | 0.08 | 71 | 1006.2 |
| 20260904115147 | 63 | 241 | 13.0 | 23.0 | 0.00 | 0.20 | 0.08 | 70 | 1006.1 |
| 20260904114650 | 64 | 223 | 13.0 | 23.0 | 0.00 | 0.20 | 0.08 | 70 | 1006.1 |
| 20260904114150 | 64 | 244 | 15.0 | 23.0 | 0.00 | 0.20 | 0.08 | 71 | 1006.0 |
| 20260904113646 | 63 | 244 | 10.0 | 21.0 | 0.00 | 0.20 | 0.08 | 73 | 1005.9 |
| 20260904113147 | 63 | 223 | 12.0 | 21.0 | 0.00 | 0.20 | 0.08 | 73 | 1006.0 |
| 20260904112647 | 63 | 238 | 10.0 | 21.0 | 0.00 | 0.20 | 0.08 | 73 | 1006.0 |
| 20260904111646 | 64 | 224 | 11.0 | 18.0 | 0.00 | 0.20 | 0.08 | 73 | 1005.9 |
| 20260904111144 | 64 | 293 | 7.0 | 22.0 | 0.00 | 0.20 | 0.08 | 72 | 1005.7 |
| 20260904110645 | 64 | 262 | 10.0 | 22.0 | 0.00 | 0.20 | 0.08 | 71 | 1005.8 |
| 20260904110145 | 64 | 214 | 7.0 | 23.0 | 0.00 | 0.20 | 0.08 | 72 | 1005.9 |
| 20260904105645 | 64 | 227 | 16.0 | 23.0 | 0.00 | 0.20 | 0.08 | 73 | 1005.7 |
| 20260904105146 | 64 | 234 | 10.0 | 20.0 | 0.00 | 0.20 | 0.08 | 74 | 1005.7 |
| 20260904104145 | 64 | 238 | 6.0 | 17.0 | 0.00 | 0.20 | 0.08 | 73 | 1005.7 |
| 20260904103645 | 64 | 216 | 9.0 | 17.0 | 0.00 | 0.20 | 0.08 | 72 | 1005.6 |
| 20260904103145 | 64 | 237 | 10.0 | 20.0 | 0.00 | 0.20 | 0.08 | 73 | 1005.4 |
| 20260904102644 | 64 | 251 | 11.0 | 21.0 | 0.00 | 0.20 | 0.08 | 71 | 1005.3 |
| 20260904102132 | 63 | 243 | 11.0 | 24.0 | 0.00 | 0.20 | 0.08 | 73 | 1005.3 |
| 20260904101611 | 62 | 223 | 15.0 | 24.0 | 0.00 | 0.20 | 0.08 | 75 | 1005.3 |
| 20260904101104 | 62 | 220 | 8.0 | 16.0 | 0.00 | 0.20 | 0.08 | 74 | 1005.3 |
| 20260904100605 | 62 | 233 | 8.0 | 22.0 | 0.00 | 0.20 | 0.08 | 74 | 1005.3 |
| 20260904100106 | 62 | 223 | 12.0 | 22.0 | 0.00 | 0.20 | 0.08 | 75 | 1005.3 |
| 20260904095604 | 62 | 248 | 14.0 | 21.0 | 0.00 | 0.20 | 0.08 | 75 | 1005.4 |
| 20260904094606 | 62 | 292 | 10.0 | 18.0 | 0.00 | 0.20 | 0.08 | 76 | 1005.2 |
| 20260904094047 | 62 | 213 | 8.0 | 18.0 | 0.00 | 0.20 | 0.08 | 76 | 1005.3 |
| 20260904093544 | 62 | 268 | 9.0 | 17.0 | 0.00 | 0.20 | 0.08 | 76 | 1005.3 |
| 20260904093044 | 62 | 259 | 11.0 | 23.0 | 0.00 | 0.20 | 0.08 | 76 | 1005.3 |
| 20260904092549 | 63 | 213 | 14.0 | 23.0 | 0.00 | 0.20 | 0.08 | 77 | 1005.4 |
| 20260904092046 | 63 | 261 | 9.0 | 19.0 | 0.00 | 0.20 | 0.08 | 77 | 1005.2 |
| 20260904091538 | 63 | 224 | 6.0 | 18.0 | 0.00 | 0.20 | 0.08 | 79 | 1005.3 |
| 20260904090507 | 61 | 233 | 10.0 | 18.0 | 0.00 | 0.20 | 0.08 | 81 | 1005.1 |
| 20260904090015 | 61 | 268 | 9.0 | 18.0 | 0.00 | 0.20 | 0.08 | 81 | 1005.2 |
| 20260904085506 | 60 | 259 | 9.0 | 15.0 | 0.00 | 0.20 | 0.08 | 81 | 1005.1 |
| 20260904084444 | 60 | 210 | 8.0 | 20.0 | 0.00 | 0.20 | 0.08 | 82 | 1005.1 |
| 20260904083938 | 60 | 203 | 13.0 | 20.0 | 0.00 | 0.20 | 0.08 | 83 | 1005.1 |
| 20260904083435 | 60 | 231 | 6.0 | 15.0 | 0.00 | 0.20 | 0.08 | 82 | 1005.1 |
| 20260904082932 | 60 | 241 | 10.0 | 15.0 | 0.00 | 0.20 | 0.08 | 82 | 1005.0 |
| 20260904082432 | 60 | 293 | 8.0 | 15.0 | 0.00 | 0.20 | 0.08 | 82 | 1005.0 |
| 20260904081932 | 60 | 255 | 8.0 | 18.0 | 0.00 | 0.20 | 0.08 | 82 | 1004.9 |
| 20260904080919 | 59 | 233 | 7.0 | 16.0 | 0.00 | 0.22 | 0.08 | 84 | 1005.1 |
| 20260904080406 | 59 | 254 | 9.0 | 18.0 | 0.00 | 0.22 | 0.08 | 84 | 1005.1 |
| 20260904075405 | 59 | 282 | 9.0 | 15.0 | 0.00 | 0.22 | 0.08 | 85 | 1004.8 |
| 20260904074855 | 59 | 272 | 9.0 | 23.0 | 0.00 | 0.22 | 0.08 | 86 | 1004.8 |
| 20260904074347 | 59 | 166 | 11.0 | 25.0 | 0.00 | 0.22 | 0.08 | 86 | 1004.6 |
| 20260904073844 | 59 | 238 | 12.0 | 25.0 | 0.00 | 0.22 | 0.08 | 89 | 1004.5 |
| 20260904073334 | 59 | 231 | 7.0 | 19.0 | 0.00 | 0.22 | 0.08 | 92 | 1004.5 |
| 20260904072832 | 59 | 228 | 9.0 | 16.0 | 0.00 | 0.22 | 0.08 | 93 | 1004.5 |
| 20260904071835 | 59 | 283 | 6.0 | 15.0 | 0.00 | 0.22 | 0.08 | 93 | 1004.5 |
| 20260904071333 | 58 | 238 | 7.0 | 18.0 | 0.00 | 0.22 | 0.08 | 93 | 1004.3 |
| 20260904070816 | 58 | 250 | 11.0 | 18.0 | 0.00 | 0.22 | 0.08 | 94 | 1004.3 |
| 20260904065803 | 58 | 192 | 6.0 | 12.0 | 0.00 | 0.22 | 0.08 | 94 | 1004.2 |
| 20260904065307 | 58 | 210 | 7.0 | 16.0 | 0.00 | 0.22 | 0.08 | 95 | 1004.1 |
| 20260904064756 | 58 | 204 | 7.0 | 17.0 | 0.00 | 0.22 | 0.08 | 95 | 1004.0 |
| 20260904064250 | 58 | 217 | 6.0 | 17.0 | 0.00 | 0.22 | 0.08 | 95 | 1004.1 |
| 20260904063744 | 58 | 192 | 5.0 | 14.0 | 0.00 | 0.22 | 0.08 | 95 | 1004.0 |
| 20260904063245 | 58 | 214 | 8.0 | 16.0 | 0.00 | 0.22 | 0.08 | 95 | 1004.1 |
| 20260904062748 | 58 | 228 | 8.0 | 16.0 | 0.00 | 0.22 | 0.08 | 95 | 1004.1 |
| 20260904062247 | 58 | 234 | 5.0 | 9.0 | 0.00 | 0.22 | 0.08 | 95 | 1004.1 |
| 20260904061248 | 58 | 173 | 4.0 | 9.0 | 0.00 | 0.22 | 0.08 | 95 | 1004.3 |
| 20260904060744 | 58 | 178 | 6.0 | 12.0 | 0.00 | 0.22 | 0.08 | 95 | 1004.3 |
| 20260904055745 | 58 | 213 | 4.0 | 15.0 | 0.00 | 0.22 | 0.08 | 95 | 1004.4 |